Time,TemperatureF,DewpointF,PressureIn,WindDirection,WindDirectionDegrees,WindSpeedMPH,WindSpeedGustMPH,Humidity,HourlyPrecipIn,Conditions,Clouds,dailyrainin,SoftwareType,DateUTC
2013-10-10 00:01:00,52.0,25.8,29.37,NW,315,0.0,0.6,36,0.02,RA,OVC,0.00,WeatherDisplay:10.37,2013-10-10 04:01:00,
2013-10-10 00:02:00,52.0,25.8,29.37,NNE,22,1.0,0.0,36,0.02,RA,OVC,0.00,WeatherDisplay:10.37,2013-10-10 04:02:00,
2013-10-10 00:07:00,52.0,25.8,29.37,East,90,1.2,1.2,36,0.02,RA,OVC,0.00,WeatherDisplay:10.37,2013-10-10 04:07:00,
2013-10-10 00:12:00,52.0,26.5,29.37,ENE,67,1.2,1.2,37,0.02,CLR,OVC,0.00,WeatherDisplay:10.37,2013-10-10 04:12:00,
2013-10-10 00:17:00,52.0,24.5,29.37,NW,315,1.2,1.2,34,0.02,CLR,OVC,0.00,WeatherDisplay:10.37,2013-10-10 04:17:00,
2013-10-10 00:22:00,52.0,24.5,29.37,ESE,112,2.3,2.3,34,0.01,CLR,OVC,0.00,WeatherDisplay:10.37,2013-10-10 04:22:00,
2013-10-10 00:27:00,52.0,25.2,29.37,East,90,3.5,3.5,35,0.01,CLR,OVC,0.00,WeatherDisplay:10.37,2013-10-10 04:27:00,
2013-10-10 00:32:00,52.0,25.8,29.36,North,360,1.2,1.2,36,0.00,CLR,OVC,0.00,WeatherDisplay:10.37,2013-10-10 04:32:00,
2013-10-10 00:37:00,52.0,23.8,29.36,ESE,112,3.5,3.5,33,0.00,CLR,OVC,0.00,WeatherDisplay:10.37,2013-10-10 04:37:00,
2013-10-10 00:42:00,52.0,23.8,29.36,ENE,67,1.2,1.2,33,0.00,CLR,OVC,0.00,WeatherDisplay:10.37,2013-10-10 04:42:00,
2013-10-10 00:47:00,52.0,23.8,29.36,ENE,67,1.2,1.2,33,0.00,CLR,OVC,0.00,WeatherDisplay:10.37,2013-10-10 04:47:00,
2013-10-10 00:52:00,52.0,23.8,29.35,NE,45,0.0,0.0,33,0.00,CLR,OVC,0.00,WeatherDisplay:10.37,2013-10-10 04:52:00,
2013-10-10 00:57:00,52.0,23.0,29.35,East,90,1.2,1.2,32,0.00,CLR,OVC,0.00,WeatherDisplay:10.37,2013-10-10 04:57:00,
2013-10-10 01:02:00,52.0,24.5,29.35,East,90,0.0,0.0,34,0.00,CLR,OVC,0.00,WeatherDisplay:10.37,2013-10-10 05:02:00,
2013-10-10 01:07:00,52.0,23.8,29.35,West,270,0.0,0.1,33,0.00,CLR,OVC,0.00,WeatherDisplay:10.37,2013-10-10 05:07:00,
2013-10-10 01:12:00,52.0,25.2,29.35,ESE,112,1.2,1.2,35,0.00,CLR,OVC,0.00,WeatherDisplay:10.37,2013-10-10 05:12:00,
2013-10-10 01:17:00,52.0,24.5,29.35,ENE,67,2.3,0.0,34,0.00,CLR,OVC,0.00,WeatherDisplay:10.37,2013-10-10 05:17:00,
2013-10-10 01:22:00,52.0,25.8,29.35,NE,45,4.6,4.6,36,0.00,CLR,OVC,0.00,WeatherDisplay:10.37,2013-10-10 05:22:00,
2013-10-10 01:27:00,52.0,25.8,29.35,ENE,67,2.3,2.3,36,0.00,CLR,OVC,0.00,WeatherDisplay:10.37,2013-10-10 05:27:00,
2013-10-10 01:32:00,52.0,27.1,29.35,North,360,1.2,1.2,38,0.00,CLR,OVC,0.00,WeatherDisplay:10.37,2013-10-10 05:32:00,
2013-10-10 01:37:00,52.0,27.8,29.35,ENE,67,1.2,1.2,39,0.00,CLR,OVC,0.00,WeatherDisplay:10.37,2013-10-10 05:37:00,
2013-10-10 01:42:00,52.0,28.4,29.34,ESE,112,1.2,1.2,40,0.00,CLR,OVC,0.00,WeatherDisplay:10.37,2013-10-10 05:42:00,
2013-10-10 01:47:00,52.0,29.0,29.34,North,360,2.3,0.0,41,0.00,CLR,OVC,0.00,WeatherDisplay:10.37,2013-10-10 05:47:00,
2013-10-10 01:52:00,52.0,30.2,29.34,ENE,67,1.2,0.0,43,0.00,CLR,OVC,0.00,WeatherDisplay:10.37,2013-10-10 05:52:00,
2013-10-10 01:57:00,52.0,31.3,29.34,North,360,3.5,3.5,45,0.00,CLR,OVC,0.00,WeatherDisplay:10.37,2013-10-10 05:57:00,
2013-10-10 02:02:00,52.0,32.9,29.34,NE,45,0.0,0.1,48,0.00,CLR,OVC,0.00,WeatherDisplay:10.37,2013-10-10 06:02:00,
2013-10-10 02:07:00,52.0,31.8,29.34,North,360,1.2,1.2,46,0.00,CLR,OVC,0.00,WeatherDisplay:10.37,2013-10-10 06:07:00,
2013-10-10 02:12:00,52.0,32.9,29.34,NE,45,2.3,2.3,48,0.00,CLR,OVC,0.00,WeatherDisplay:10.37,2013-10-10 06:12:00,
2013-10-10 02:17:00,52.0,33.9,29.34,NNE,22,1.2,1.2,50,0.00,CLR,OVC,0.00,WeatherDisplay:10.37,2013-10-10 06:17:00,
2013-10-10 02:22:00,52.0,34.4,29.34,ENE,67,1.2,0.0,51,0.00,CLR,OVC,0.00,WeatherDisplay:10.37,2013-10-10 06:22:00,
2013-10-10 02:27:00,52.0,35.4,29.34,East,90,1.2,1.2,53,0.00,CLR,OVC,0.00,WeatherDisplay:10.37,2013-10-10 06:27:00,
2013-10-10 02:32:00,52.0,35.9,29.33,ENE,67,2.3,2.3,54,0.00,CLR,OVC,0.00,WeatherDisplay:10.37,2013-10-10 06:32:00,
2013-10-10 02:38:00,52.0,35.9,29.33,NNE,22,3.5,3.5,54,0.00,CLR,OVC,0.00,WeatherDisplay:10.37,2013-10-10 06:38:00,
2013-10-10 02:43:00,51.0,34.0,29.33,NE,45,3.5,3.5,52,0.00,CLR,OVC,0.00,WeatherDisplay:10.37,2013-10-10 06:43:00,
2013-10-10 02:48:00,51.0,33.0,29.33,East,90,0.0,0.0,50,0.00,CLR,OVC,0.00,WeatherDisplay:10.37,2013-10-10 06:48:00,
2013-10-10 02:53:00,51.0,32.5,29.33,NNE,22,1.2,0.0,49,0.00,CLR,OVC,0.00,WeatherDisplay:10.37,2013-10-10 06:53:00,
2013-10-10 02:58:00,51.0,32.0,29.33,NNE,22,3.5,0.0,48,0.00,CLR,OVC,0.00,WeatherDisplay:10.37,2013-10-10 06:58:00,
2013-10-10 03:03:00,51.0,30.9,29.32,ENE,67,2.3,2.3,46,0.00,CLR,OVC,0.00,WeatherDisplay:10.37,2013-10-10 07:03:00,
2013-10-10 03:08:00,51.0,30.4,29.32,NNW,337,0.0,0.2,45,0.00,CLR,OVC,0.00,WeatherDisplay:10.37,2013-10-10 07:08:00,
2013-10-10 03:13:00,51.0,29.3,29.33,NW,315,1.2,1.2,43,0.00,CLR,OVC,0.00,WeatherDisplay:10.37,2013-10-10 07:13:00,
2013-10-10 03:18:00,51.0,29.3,29.33,NNE,22,1.2,1.2,43,0.00,CLR,OVC,0.00,WeatherDisplay:10.37,2013-10-10 07:18:00,
2013-10-10 03:23:00,51.0,29.3,29.32,NE,45,1.2,1.2,43,0.00,CLR,OVC,0.00,WeatherDisplay:10.37,2013-10-10 07:23:00,
2013-10-10 03:28:00,51.0,28.1,29.32,West,270,1.2,1.2,41,0.00,CLR,OVC,0.00,WeatherDisplay:10.37,2013-10-10 07:28:00,
2013-10-10 03:33:00,51.0,28.1,29.32,ENE,67,3.5,3.5,41,0.00,CLR,OVC,0.00,WeatherDisplay:10.37,2013-10-10 07:33:00,
2013-10-10 03:38:00,51.0,27.5,29.32,ENE,67,2.3,2.3,40,0.00,CLR,OVC,0.00,WeatherDisplay:10.37,2013-10-10 07:38:00,
2013-10-10 03:43:00,51.0,26.3,29.32,ESE,112,1.2,0.0,38,0.00,CLR,OVC,0.00,WeatherDisplay:10.37,2013-10-10 07:43:00,
2013-10-10 03:48:00,51.0,25.0,29.32,NNE,22,2.3,2.3,36,0.00,CLR,OVC,0.00,WeatherDisplay:10.37,2013-10-10 07:48:00,
2013-10-10 03:53:00,51.0,25.6,29.31,NNE,22,0.0,0.0,37,0.00,CLR,OVC,0.00,WeatherDisplay:10.37,2013-10-10 07:53:00,
2013-10-10 03:58:00,51.0,25.6,29.31,ENE,67,0.0,0.2,37,0.00,CLR,OVC,0.00,WeatherDisplay:10.37,2013-10-10 07:58:00,
2013-10-10 04:03:00,51.0,24.3,29.31,ESE,112,0.0,0.0,35,0.00,CLR,OVC,0.00,WeatherDisplay:10.37,2013-10-10 08:03:00,
2013-10-10 04:08:00,51.0,23.6,29.31,ENE,67,0.0,0.0,34,0.00,CLR,OVC,0.00,WeatherDisplay:10.37,2013-10-10 08:08:00,
2013-10-10 04:13:00,51.0,23.6,29.31,ESE,112,1.2,1.2,34,0.00,CLR,OVC,0.00,WeatherDisplay:10.37,2013-10-10 08:13:00,
2013-10-10 04:18:00,51.0,22.1,29.31,NNE,22,1.2,1.2,32,0.00,CLR,OVC,0.00,WeatherDisplay:10.37,2013-10-10 08:18:00,
2013-10-10 04:23:00,51.0,22.1,29.31,WSW,247,3.5,3.5,32,0.00,CLR,OVC,0.00,WeatherDisplay:10.37,2013-10-10 08:23:00,
2013-10-10 04:28:00,51.0,22.1,29.31,ESE,112,3.5,3.5,32,0.00,CLR,OVC,0.00,WeatherDisplay:10.37,2013-10-10 08:28:00,
2013-10-10 04:33:00,51.0,22.1,29.31,NE,45,0.0,0.0,32,0.00,CLR,OVC,0.00,WeatherDisplay:10.37,2013-10-10 08:33:00,
2013-10-10 04:38:00,51.0,21.4,29.31,NNE,22,1.2,1.2,31,0.00,CLR,OVC,0.00,WeatherDisplay:10.37,2013-10-10 08:38:00,
2013-10-10 04:43:00,51.0,22.1,29.31,SSE,157,1.2,1.2,32,0.00,CLR,OVC,0.00,WeatherDisplay:10.37,2013-10-10 08:43:00,
2013-10-10 04:48:00,51.0,20.6,29.31,ENE,67,1.2,1.2,30,0.00,CLR,OVC,0.00,WeatherDisplay:10.37,2013-10-10 08:48:00,
2013-10-10 04:53:00,51.0,20.6,29.31,East,90,1.2,1.2,30,0.00,CLR,OVC,0.00,WeatherDisplay:10.37,2013-10-10 08:53:00,
2013-10-10 04:58:00,51.0,20.6,29.31,ESE,112,1.2,1.2,30,0.00,CLR,OVC,0.00,WeatherDisplay:10.37,2013-10-10 08:58:00,
2013-10-10 05:03:00,51.0,20.6,29.31,ESE,112,0.0,0.0,30,0.00,CLR,OVC,0.00,WeatherDisplay:10.37,2013-10-10 09:03:00,
2013-10-10 05:08:00,51.0,21.4,29.31,East,90,0.0,0.1,31,0.00,CLR,OVC,0.00,WeatherDisplay:10.37,2013-10-10 09:08:00,
2013-10-10 05:13:00,51.0,22.1,29.31,NE,45,0.0,0.0,32,0.00,CLR,OVC,0.00,WeatherDisplay:10.37,2013-10-10 09:13:00,
2013-10-10 05:18:00,51.0,21.4,29.31,ENE,67,0.0,0.1,31,0.00,CLR,OVC,0.00,WeatherDisplay:10.37,2013-10-10 09:18:00,
2013-10-10 05:23:00,51.0,22.1,29.31,ENE,67,3.5,3.5,32,0.00,CLR,OVC,0.00,WeatherDisplay:10.37,2013-10-10 09:23:00,
2013-10-10 05:28:00,51.0,22.1,29.31,North,360,0.0,0.1,32,0.00,CLR,OVC,0.00,WeatherDisplay:10.37,2013-10-10 09:28:00,
2013-10-10 05:33:00,51.0,24.3,29.31,SSE,157,3.5,3.5,35,0.01,RA,OVC,0.01,WeatherDisplay:10.37,2013-10-10 09:33:00,
2013-10-10 05:38:00,51.0,22.9,29.31,NE,45,3.5,3.5,33,0.01,RA,OVC,0.01,WeatherDisplay:10.37,2013-10-10 09:38:00,
2013-10-10 05:43:00,51.0,24.3,29.31,East,90,3.0,3.0,35,0.01,CLR,OVC,0.01,WeatherDisplay:10.37,2013-10-10 09:43:00,
2013-10-10 05:48:00,51.0,23.6,29.31,SE,135,3.5,0.0,34,0.01,CLR,OVC,0.01,WeatherDisplay:10.37,2013-10-10 09:48:00,
2013-10-10 05:53:00,51.0,25.0,29.31,East,90,3.0,3.0,36,0.01,CLR,OVC,0.01,WeatherDisplay:10.37,2013-10-10 09:53:00,
2013-10-10 05:58:00,51.0,24.3,29.31,SSW,202,1.2,1.2,35,0.01,CLR,OVC,0.01,WeatherDisplay:10.37,2013-10-10 09:58:00,
2013-10-10 06:03:00,51.0,24.3,29.30,NW,315,0.0,0.0,35,0.01,CLR,OVC,0.01,WeatherDisplay:10.37,2013-10-10 10:03:00,
2013-10-10 06:08:00,51.0,24.3,29.30,SSE,157,0.0,0.0,35,0.01,CLR,OVC,0.01,WeatherDisplay:10.37,2013-10-10 10:08:00,
2013-10-10 06:13:00,51.0,25.0,29.30,NNE,22,0.0,0.0,36,0.01,CLR,OVC,0.01,WeatherDisplay:10.37,2013-10-10 10:13:00,
2013-10-10 06:18:00,51.0,25.0,29.30,SE,135,0.0,0.0,36,0.01,CLR,OVC,0.01,WeatherDisplay:10.37,2013-10-10 10:18:00,
2013-10-10 06:23:00,51.0,25.6,29.30,NW,315,1.2,1.2,37,0.01,CLR,OVC,0.01,WeatherDisplay:10.37,2013-10-10 10:23:00,
2013-10-10 06:28:00,51.0,24.3,29.30,ENE,67,1.2,0.0,35,0.01,CLR,OVC,0.01,WeatherDisplay:10.37,2013-10-10 10:28:00,
2013-10-10 06:33:00,51.0,25.6,29.30,NNE,22,0.0,0.2,37,0.00,CLR,OVC,0.01,WeatherDisplay:10.37,2013-10-10 10:33:00,
2013-10-10 06:38:00,51.0,25.0,29.30,ENE,67,1.2,0.0,36,0.00,CLR,OVC,0.01,WeatherDisplay:10.37,2013-10-10 10:38:00,
2013-10-10 06:43:00,51.0,25.6,29.31,NNE,22,0.0,0.0,37,0.00,CLR,OVC,0.01,WeatherDisplay:10.37,2013-10-10 10:43:00,
2013-10-10 06:48:00,51.0,25.6,29.31,NW,315,4.0,4.0,37,0.00,CLR,OVC,0.01,WeatherDisplay:10.37,2013-10-10 10:48:00,
2013-10-10 06:53:00,51.0,24.3,29.31,NE,45,0.0,0.0,35,0.00,CLR,OVC,0.01,WeatherDisplay:10.37,2013-10-10 10:53:00,
2013-10-10 06:58:00,51.0,23.6,29.31,WNW,292,1.0,1.0,34,0.00,CLR,OVC,0.01,WeatherDisplay:10.37,2013-10-10 10:58:00,
2013-10-10 07:03:00,51.0,23.6,29.31,South,180,0.0,0.0,34,0.01,RA,OVC,0.02,WeatherDisplay:10.37,2013-10-10 11:03:00,
2013-10-10 07:08:00,51.0,22.1,29.31,ESE,112,1.2,1.2,32,0.01,RA,OVC,0.02,WeatherDisplay:10.37,2013-10-10 11:08:00,
2013-10-10 07:13:00,51.0,24.3,29.31,WNW,292,0.0,0.1,35,0.01,,OVC,0.02,WeatherDisplay:10.37,2013-10-10 11:13:00,
2013-10-10 07:18:00,51.0,22.9,29.31,SSE,157,1.2,1.2,33,0.01,CLR,OVC,0.02,WeatherDisplay:10.37,2013-10-10 11:18:00,
2013-10-10 07:23:00,51.0,22.1,29.31,ENE,67,0.0,0.0,32,0.01,CLR,OVC,0.02,WeatherDisplay:10.37,2013-10-10 11:23:00,
2013-10-10 07:28:00,51.0,20.6,29.31,NNE,22,1.2,1.2,30,0.01,CLR,OVC,0.02,WeatherDisplay:10.37,2013-10-10 11:28:00,
2013-10-10 07:33:00,51.0,22.1,29.30,NNE,22,0.0,0.0,32,0.01,CLR,OVC,0.02,WeatherDisplay:10.37,2013-10-10 11:33:00,
2013-10-10 07:38:00,51.0,20.6,29.30,ENE,67,0.0,0.0,30,0.01,CLR,OVC,0.02,WeatherDisplay:10.37,2013-10-10 11:38:00,
2013-10-10 07:43:00,51.0,20.6,29.30,NW,315,2.3,2.3,30,0.01,CLR,OVC,0.02,WeatherDisplay:10.37,2013-10-10 11:43:00,
2013-10-10 07:48:00,51.0,19.8,29.30,ESE,112,0.0,0.0,29,0.01,CLR,OVC,0.02,WeatherDisplay:10.37,2013-10-10 11:48:00,
2013-10-10 07:53:00,51.0,19.0,29.30,SSE,157,1.2,0.0,28,0.02,RA,OVC,0.03,WeatherDisplay:10.37,2013-10-10 11:53:00,
2013-10-10 07:58:00,51.0,18.1,29.30,NE,45,1.0,0.0,27,0.02,RA,OVC,0.03,WeatherDisplay:10.37,2013-10-10 11:58:00,
2013-10-10 08:03:00,51.0,18.1,29.30,ENE,67,0.0,0.0,27,0.01,CLR,OVC,0.03,WeatherDisplay:10.37,2013-10-10 12:03:00,
2013-10-10 08:08:00,51.0,17.3,29.30,ENE,67,1.2,1.2,26,0.01,CLR,OVC,0.03,WeatherDisplay:10.37,2013-10-10 12:08:00,
2013-10-10 08:13:00,51.0,16.4,29.30,South,180,0.0,0.0,25,0.01,CLR,OVC,0.03,WeatherDisplay:10.37,2013-10-10 12:13:00,
2013-10-10 08:18:00,51.0,17.3,29.30,NNW,337,0.0,0.0,26,0.01,CLR,OVC,0.03,WeatherDisplay:10.37,2013-10-10 12:18:00,
2013-10-10 08:23:00,51.0,16.4,29.31,NW,315,1.2,1.2,25,0.01,CLR,OVC,0.04,WeatherDisplay:10.37,2013-10-10 12:23:00,
2013-10-10 08:28:00,52.0,23.8,29.30,East,90,0.0,0.1,33,0.02,RA,OVC,0.04,WeatherDisplay:10.37,2013-10-10 12:28:00,
2013-10-10 08:33:00,52.0,17.2,29.30,East,90,0.0,0.1,25,0.02,RA,OVC,0.04,WeatherDisplay:10.37,2013-10-10 12:33:00,
2013-10-10 08:39:00,52.0,23.8,29.30,NNW,337,1.2,1.2,33,0.02,CLR,OVC,0.04,WeatherDisplay:10.37,2013-10-10 12:39:00,
2013-10-10 08:44:00,52.0,19.0,29.30,NW,315,3.5,3.5,27,0.02,CLR,OVC,0.04,WeatherDisplay:10.37,2013-10-10 12:44:00,
2013-10-10 08:49:00,52.0,24.5,29.31,NE,45,0.0,0.0,34,0.02,CLR,OVC,0.04,WeatherDisplay:10.37,2013-10-10 12:49:00,
2013-10-10 08:54:00,52.0,19.0,29.31,NW,315,0.0,0.0,27,0.01,CLR,OVC,0.04,WeatherDisplay:10.37,2013-10-10 12:54:00,
2013-10-10 08:59:00,52.0,18.1,29.31,NE,45,0.0,0.0,26,0.01,CLR,OVC,0.04,WeatherDisplay:10.37,2013-10-10 12:59:00,
2013-10-10 09:04:00,52.0,20.7,29.31,NW,315,1.0,1.2,29,0.01,CLR,OVC,0.04,WeatherDisplay:10.37,2013-10-10 13:04:00,
2013-10-10 09:09:00,52.0,24.5,29.31,ESE,112,1.2,0.0,34,0.01,CLR,OVC,0.04,WeatherDisplay:10.37,2013-10-10 13:09:00,
2013-10-10 09:14:00,52.0,19.0,29.31,NW,315,3.0,3.0,27,0.01,CLR,OVC,0.04,WeatherDisplay:10.37,2013-10-10 13:14:00,
2013-10-10 09:19:00,52.0,19.0,29.31,NNW,337,0.0,0.0,27,0.01,CLR,OVC,0.04,WeatherDisplay:10.37,2013-10-10 13:19:00,
2013-10-10 09:24:00,52.0,18.1,29.31,NE,45,0.0,0.0,26,0.01,CLR,OVC,0.04,WeatherDisplay:10.37,2013-10-10 13:24:00,
2013-10-10 09:29:00,52.0,18.1,29.31,NNE,22,0.0,0.0,26,0.00,CLR,OVC,0.04,WeatherDisplay:10.37,2013-10-10 13:29:00,
2013-10-10 09:34:00,52.0,18.1,29.31,NNW,337,0.0,0.1,26,0.00,CLR,OVC,0.04,WeatherDisplay:10.37,2013-10-10 13:34:00,
2013-10-10 09:39:00,52.0,24.5,29.31,ENE,67,0.0,0.0,34,0.00,CLR,OVC,0.04,WeatherDisplay:10.37,2013-10-10 13:39:00,
2013-10-10 09:44:00,52.0,17.2,29.31,East,90,0.0,0.1,25,0.00,CLR,OVC,0.04,WeatherDisplay:10.37,2013-10-10 13:44:00,
2013-10-10 09:49:00,52.0,24.5,29.31,ESE,112,3.5,3.5,34,0.00,CLR,OVC,0.04,WeatherDisplay:10.37,2013-10-10 13:49:00,
2013-10-10 09:54:00,52.0,18.1,29.31,ENE,67,0.0,0.0,26,0.00,CLR,OVC,0.04,WeatherDisplay:10.37,2013-10-10 13:54:00,
2013-10-10 09:59:00,52.0,17.2,29.31,ESE,112,0.0,0.0,25,0.00,CLR,OVC,0.04,WeatherDisplay:10.37,2013-10-10 13:59:00,
2013-10-10 10:04:00,52.0,20.7,29.31,ESE,112,0.0,0.0,29,0.00,CLR,OVC,0.04,WeatherDisplay:10.37,2013-10-10 14:04:00,
2013-10-10 10:09:00,52.0,20.7,29.31,NNE,22,1.2,1.2,29,0.00,CLR,OVC,0.04,WeatherDisplay:10.37,2013-10-10 14:09:00,
2013-10-10 10:14:00,53.0,23.1,29.31,ESE,112,0.0,0.0,31,0.00,CLR,OVC,0.04,WeatherDisplay:10.37,2013-10-10 14:14:00,
2013-10-10 10:19:00,53.0,31.1,29.31,ENE,67,0.0,0.0,43,0.00,CLR,OVC,0.04,WeatherDisplay:10.37,2013-10-10 14:19:00,
2013-10-10 10:24:00,53.0,23.9,29.31,ENE,67,1.2,1.2,32,0.00,CLR,OVC,0.04,WeatherDisplay:10.37,2013-10-10 14:24:00,
2013-10-10 10:29:00,54.0,33.1,29.30,ENE,67,1.2,1.2,45,0.00,CLR,OVC,0.04,WeatherDisplay:10.37,2013-10-10 14:29:00,
2013-10-10 10:34:00,53.0,32.8,29.30,NNE,22,4.6,4.6,46,0.00,CLR,OVC,0.04,WeatherDisplay:10.37,2013-10-10 14:34:00,
2013-10-10 10:39:00,54.0,38.6,29.30,ESE,112,1.2,1.2,56,0.00,CLR,OVC,0.04,WeatherDisplay:10.37,2013-10-10 14:39:00,
2013-10-10 10:44:00,54.0,36.3,29.30,SE,135,1.2,1.2,51,0.00,CLR,OVC,0.04,WeatherDisplay:10.37,2013-10-10 14:44:00,
2013-10-10 10:49:00,54.0,41.7,29.30,SSE,157,3.0,3.0,63,0.00,CLR,OVC,0.04,WeatherDisplay:10.37,2013-10-10 14:49:00,
2013-10-10 10:54:00,54.0,38.6,29.30,ESE,112,0.0,0.0,56,0.00,CLR,OVC,0.04,WeatherDisplay:10.37,2013-10-10 14:54:00,
2013-10-10 10:59:00,54.0,40.8,29.30,ENE,67,3.5,3.5,61,0.00,CLR,OVC,0.04,WeatherDisplay:10.37,2013-10-10 14:59:00,
2013-10-10 11:04:00,54.0,37.2,29.30,NW,315,0.0,0.0,53,0.00,CLR,OVC,0.04,WeatherDisplay:10.37,2013-10-10 15:04:00,
2013-10-10 11:09:00,54.0,40.0,29.30,East,90,1.2,1.2,59,0.00,CLR,OVC,0.04,WeatherDisplay:10.37,2013-10-10 15:09:00,
2013-10-10 11:14:00,54.0,36.8,29.30,ESE,112,1.2,1.2,52,0.00,CLR,OVC,0.04,WeatherDisplay:10.37,2013-10-10 15:14:00,
2013-10-10 11:19:00,54.0,40.4,29.30,ENE,67,0.0,0.0,60,0.00,CLR,OVC,0.04,WeatherDisplay:10.37,2013-10-10 15:19:00,
2013-10-10 11:24:00,54.0,36.3,29.30,ESE,112,1.2,1.2,51,0.00,CLR,OVC,0.04,WeatherDisplay:10.37,2013-10-10 15:24:00,
2013-10-10 11:29:00,55.0,40.9,29.29,East,90,0.0,0.0,59,0.00,CLR,OVC,0.04,WeatherDisplay:10.37,2013-10-10 15:29:00,
2013-10-10 11:34:00,55.0,37.2,29.29,WNW,292,1.2,1.2,51,0.00,CLR,OVC,0.04,WeatherDisplay:10.37,2013-10-10 15:34:00,
2013-10-10 11:39:00,55.0,41.8,29.29,ESE,112,0.0,0.1,61,0.00,CLR,OVC,0.04,WeatherDisplay:10.37,2013-10-10 15:39:00,
2013-10-10 11:44:00,54.0,39.5,29.29,East,90,2.3,2.3,58,0.00,CLR,OVC,0.04,WeatherDisplay:10.37,2013-10-10 15:44:00,
2013-10-10 11:49:00,55.0,43.0,29.29,ENE,67,1.2,1.2,64,0.00,CLR,OVC,0.04,WeatherDisplay:10.37,2013-10-10 15:49:00,
2013-10-10 11:54:00,55.0,38.6,29.29,East,90,1.2,1.2,54,0.00,CLR,OVC,0.04,WeatherDisplay:10.37,2013-10-10 15:54:00,
2013-10-10 11:59:00,55.0,41.8,29.29,SE,135,0.0,0.1,61,0.00,CLR,OVC,0.04,WeatherDisplay:10.37,2013-10-10 15:59:00,
2013-10-10 12:04:00,55.0,38.6,29.29,ENE,67,0.0,0.0,54,0.00,CLR,OVC,0.04,WeatherDisplay:10.37,2013-10-10 16:04:00,
2013-10-10 12:09:00,55.0,41.8,29.29,ESE,112,0.0,0.0,61,0.00,CLR,OVC,0.04,WeatherDisplay:10.37,2013-10-10 16:09:00,
2013-10-10 12:14:00,55.0,37.7,29.29,ENE,67,0.0,0.0,52,0.00,CLR,OVC,0.04,WeatherDisplay:10.37,2013-10-10 16:14:00,
2013-10-10 12:19:00,55.0,40.5,29.29,NE,45,1.2,1.2,58,0.00,CLR,OVC,0.04,WeatherDisplay:10.37,2013-10-10 16:19:00,
2013-10-10 12:24:00,55.0,36.2,29.29,East,90,0.0,0.0,49,0.00,CLR,OVC,0.04,WeatherDisplay:10.37,2013-10-10 16:24:00,
2013-10-10 12:29:00,55.0,40.9,29.29,NW,315,2.3,2.3,59,0.00,CLR,OVC,0.04,WeatherDisplay:10.37,2013-10-10 16:29:00,
2013-10-10 12:34:00,55.0,35.1,29.29,ENE,67,0.0,0.0,47,0.00,CLR,OVC,0.04,WeatherDisplay:10.37,2013-10-10 16:34:00,
2013-10-10 12:39:00,56.0,41.9,29.28,ENE,67,2.3,2.3,59,0.00,CLR,OVC,0.04,WeatherDisplay:10.37,2013-10-10 16:39:00,
2013-10-10 12:44:00,56.0,40.1,29.28,ESE,112,0.0,0.0,55,0.00,CLR,OVC,0.04,WeatherDisplay:10.37,2013-10-10 16:44:00,
2013-10-10 12:49:00,56.0,44.4,29.29,East,90,1.2,1.2,65,0.00,CLR,OVC,0.04,WeatherDisplay:10.37,2013-10-10 16:49:00,
2013-10-10 12:54:00,56.0,41.4,29.29,NNE,22,3.5,3.5,58,0.00,CLR,OVC,0.04,WeatherDisplay:10.37,2013-10-10 16:54:00,
2013-10-10 12:59:00,56.0,45.2,29.28,NNW,337,1.2,0.0,67,0.00,CLR,OVC,0.04,WeatherDisplay:10.37,2013-10-10 16:59:00,
2013-10-10 13:04:00,56.0,44.0,29.28,East,90,3.5,3.5,64,0.00,CLR,OVC,0.04,WeatherDisplay:10.37,2013-10-10 17:04:00,
2013-10-10 13:09:00,56.0,47.8,29.28,NW,315,2.3,2.3,74,0.00,CLR,OVC,0.04,WeatherDisplay:10.37,2013-10-10 17:09:00,
2013-10-10 13:14:00,56.0,46.0,29.28,ENE,67,1.2,1.2,69,0.00,CLR,OVC,0.04,WeatherDisplay:10.37,2013-10-10 17:14:00,
2013-10-10 13:19:00,56.0,47.8,29.28,NNE,22,0.0,0.0,74,0.00,CLR,OVC,0.04,WeatherDisplay:10.37,2013-10-10 17:19:00,
2013-10-10 13:24:00,56.0,47.1,29.28,ENE,67,2.3,2.3,72,0.00,CLR,OVC,0.04,WeatherDisplay:10.37,2013-10-10 17:24:00,
2013-10-10 13:30:00,56.0,46.0,29.27,NNW,337,1.0,1.0,69,0.00,CLR,OVC,0.04,WeatherDisplay:10.37,2013-10-10 17:30:00,
2013-10-10 13:35:00,56.0,47.1,29.27,ESE,112,1.2,1.2,72,0.00,CLR,OVC,0.04,WeatherDisplay:10.37,2013-10-10 17:35:00,
2013-10-10 13:40:00,57.0,48.4,29.26,ESE,112,3.5,3.5,73,0.00,CLR,OVC,0.04,WeatherDisplay:10.37,2013-10-10 17:40:00,
2013-10-10 13:45:00,57.0,47.7,29.26,NNE,22,0.0,0.0,71,0.00,CLR,OVC,0.04,WeatherDisplay:10.37,2013-10-10 17:45:00,
2013-10-10 13:50:00,57.0,48.4,29.26,South,180,1.2,1.2,73,0.00,CLR,OVC,0.04,WeatherDisplay:10.37,2013-10-10 17:50:00,
2013-10-10 13:55:00,57.0,48.4,29.26,ENE,67,1.2,1.2,73,0.00,CLR,OVC,0.04,WeatherDisplay:10.37,2013-10-10 17:55:00,
2013-10-10 14:00:00,57.0,48.4,29.26,East,90,2.3,2.3,73,0.00,CLR,OVC,0.04,WeatherDisplay:10.37,2013-10-10 18:00:00,
2013-10-10 14:05:00,57.0,47.3,29.26,NE,45,0.0,0.0,70,0.00,CLR,OVC,0.04,WeatherDisplay:10.37,2013-10-10 18:05:00,
2013-10-10 14:10:00,57.0,48.4,29.25,SE,135,3.5,3.5,73,0.00,CLR,OVC,0.04,WeatherDisplay:10.37,2013-10-10 18:10:00,
2013-10-10 14:15:00,57.0,47.7,29.25,NNW,337,0.0,0.0,71,0.00,CLR,OVC,0.04,WeatherDisplay:10.37,2013-10-10 18:15:00,
2013-10-10 14:20:00,57.0,49.2,29.25,SSE,157,2.3,2.3,75,0.00,CLR,OVC,0.04,WeatherDisplay:10.37,2013-10-10 18:20:00,
2013-10-10 14:25:00,57.0,48.4,29.25,SE,135,0.0,0.0,73,0.00,CLR,OVC,0.04,WeatherDisplay:10.37,2013-10-10 18:25:00,
2013-10-10 14:30:00,57.0,48.4,29.25,ESE,112,1.2,1.2,73,0.00,CLR,OVC,0.04,WeatherDisplay:10.37,2013-10-10 18:30:00,
2013-10-10 14:35:00,57.0,47.7,29.25,ESE,112,0.0,0.3,71,0.00,CLR,OVC,0.04,WeatherDisplay:10.37,2013-10-10 18:35:00,
2013-10-10 14:40:00,57.0,46.9,29.24,East,90,3.5,3.5,69,0.00,CLR,OVC,0.04,WeatherDisplay:10.37,2013-10-10 18:40:00,
2013-10-10 14:45:00,57.0,44.9,29.24,East,90,1.0,1.2,64,0.00,CLR,OVC,0.04,WeatherDisplay:10.37,2013-10-10 18:45:00,
2013-10-10 14:50:00,57.0,46.5,29.24,SE,135,0.0,0.2,68,0.00,CLR,OVC,0.04,WeatherDisplay:10.37,2013-10-10 18:50:00,
2013-10-10 14:55:00,57.0,43.2,29.24,North,360,2.3,2.3,60,0.00,CLR,OVC,0.04,WeatherDisplay:10.37,2013-10-10 18:55:00,
2013-10-10 15:00:00,57.0,43.2,29.24,WSW,247,0.0,0.0,60,0.00,CLR,OVC,0.04,WeatherDisplay:10.37,2013-10-10 19:00:00,
2013-10-10 15:05:00,57.0,43.7,29.24,East,90,2.3,2.3,61,0.00,CLR,OVC,0.04,WeatherDisplay:10.37,2013-10-10 19:05:00,
2013-10-10 15:10:00,58.0,44.6,29.24,ESE,112,2.3,2.3,61,0.00,CLR,OVC,0.04,WeatherDisplay:10.37,2013-10-10 19:10:00,
2013-10-10 15:15:00,58.0,45.9,29.24,ENE,67,1.2,1.2,64,0.00,CLR,OVC,0.04,WeatherDisplay:10.37,2013-10-10 19:15:00,
2013-10-10 15:20:00,58.0,47.5,29.24,ESE,112,2.3,2.3,68,0.00,CLR,OVC,0.04,WeatherDisplay:10.37,2013-10-10 19:20:00,
2013-10-10 15:25:00,58.0,46.7,29.24,NE,45,0.0,0.0,66,0.00,CLR,OVC,0.04,WeatherDisplay:10.37,2013-10-10 19:25:00,
2013-10-10 15:30:00,58.0,47.9,29.24,ENE,67,0.0,0.0,69,0.00,CLR,OVC,0.04,WeatherDisplay:10.37,2013-10-10 19:30:00,
2013-10-10 15:35:00,58.0,47.5,29.24,East,90,0.0,0.0,68,0.00,CLR,OVC,0.04,WeatherDisplay:10.37,2013-10-10 19:35:00,
2013-10-10 15:40:00,58.0,47.5,29.24,NE,45,0.0,0.0,68,0.00,CLR,OVC,0.04,WeatherDisplay:10.37,2013-10-10 19:40:00,
2013-10-10 15:45:00,58.0,46.7,29.24,East,90,1.0,0.0,66,0.00,CLR,OVC,0.04,WeatherDisplay:10.37,2013-10-10 19:45:00,
2013-10-10 15:50:00,58.0,46.7,29.23,East,90,2.3,2.3,66,0.00,CLR,OVC,0.04,WeatherDisplay:10.37,2013-10-10 19:50:00,
2013-10-10 15:55:00,58.0,45.5,29.23,ENE,67,0.0,0.0,63,0.00,CLR,OVC,0.04,WeatherDisplay:10.37,2013-10-10 19:55:00,
2013-10-10 16:00:00,58.0,45.9,29.23,ESE,112,1.0,1.0,64,0.00,CLR,OVC,0.04,WeatherDisplay:10.37,2013-10-10 20:00:00,
2013-10-10 16:05:00,58.0,45.9,29.23,East,90,2.3,0.0,64,0.00,CLR,OVC,0.04,WeatherDisplay:10.37,2013-10-10 20:05:00,
2013-10-10 16:10:00,58.0,45.5,29.23,ESE,112,1.2,1.2,63,0.00,CLR,OVC,0.04,WeatherDisplay:10.37,2013-10-10 20:10:00,
2013-10-10 16:15:00,58.0,45.5,29.23,NNW,337,2.3,0.0,63,0.00,CLR,OVC,0.04,WeatherDisplay:10.37,2013-10-10 20:15:00,
2013-10-10 16:20:00,58.0,45.9,29.23,ESE,112,0.0,0.0,64,0.00,CLR,OVC,0.04,WeatherDisplay:10.37,2013-10-10 20:20:00,
2013-10-10 16:25:00,58.0,46.7,29.23,ENE,67,1.2,1.2,66,0.00,CLR,OVC,0.04,WeatherDisplay:10.37,2013-10-10 20:25:00,
2013-10-10 16:30:00,59.0,50.0,29.23,East,90,1.2,1.2,72,0.00,CLR,OVC,0.04,WeatherDisplay:10.37,2013-10-10 20:30:00,
2013-10-10 16:31:00,59.0,49.6,29.23,ENE,67,2.3,2.3,71,0.00,CLR,OVC,0.04,WeatherDisplay:10.37,2013-10-10 20:31:00,
2013-10-10 16:36:00,59.0,50.4,29.23,NNW,337,0.0,0.0,73,0.00,CLR,OVC,0.04,WeatherDisplay:10.37,2013-10-10 20:36:00,
2013-10-10 16:41:00,59.0,50.7,29.23,NNE,22,3.5,3.5,74,0.00,CLR,OVC,0.04,WeatherDisplay:10.37,2013-10-10 20:41:00,
2013-10-10 16:46:00,59.0,50.4,29.23,ESE,112,1.2,0.0,73,0.00,CLR,OVC,0.04,WeatherDisplay:10.37,2013-10-10 20:46:00,
2013-10-10 16:51:00,59.0,50.7,29.23,NE,45,1.2,1.2,74,0.00,CLR,OVC,0.04,WeatherDisplay:10.37,2013-10-10 20:51:00,
2013-10-10 16:56:00,59.0,49.6,29.23,NNE,22,2.3,2.3,71,0.00,CLR,OVC,0.04,WeatherDisplay:10.37,2013-10-10 20:56:00,
2013-10-10 17:01:00,59.0,50.4,29.23,East,90,1.2,1.2,73,0.00,CLR,OVC,0.04,WeatherDisplay:10.37,2013-10-10 21:01:00,
2013-10-10 17:06:00,59.0,50.7,29.23,East,90,6.9,6.9,74,0.00,CLR,OVC,0.04,WeatherDisplay:10.37,2013-10-10 21:06:00,
2013-10-10 17:11:00,59.0,50.7,29.23,NE,45,1.0,1.0,74,0.00,CLR,OVC,0.04,WeatherDisplay:10.37,2013-10-10 21:11:00,
2013-10-10 17:16:00,59.0,50.7,29.23,South,180,4.6,4.6,74,0.00,CLR,OVC,0.04,WeatherDisplay:10.37,2013-10-10 21:16:00,
2013-10-10 17:21:00,59.0,51.4,29.23,NNE,22,1.2,1.2,76,0.00,CLR,OVC,0.04,WeatherDisplay:10.37,2013-10-10 21:21:00,
2013-10-10 17:26:00,59.0,51.4,29.23,ENE,67,1.2,0.0,76,0.00,CLR,OVC,0.04,WeatherDisplay:10.37,2013-10-10 21:26:00,
2013-10-10 17:31:00,59.0,52.1,29.23,East,90,3.5,3.5,78,0.00,CLR,OVC,0.04,WeatherDisplay:10.37,2013-10-10 21:31:00,
2013-10-10 17:36:00,59.0,51.4,29.23,ESE,112,0.0,0.1,76,0.00,CLR,OVC,0.04,WeatherDisplay:10.37,2013-10-10 21:36:00,
2013-10-10 17:41:00,59.0,51.8,29.23,NNW,337,0.0,0.1,77,0.00,CLR,OVC,0.04,WeatherDisplay:10.37,2013-10-10 21:41:00,
2013-10-10 17:46:00,59.0,51.8,29.23,ENE,67,2.3,2.3,77,0.00,CLR,OVC,0.04,WeatherDisplay:10.37,2013-10-10 21:46:00,
2013-10-10 17:51:00,59.0,51.4,29.23,ENE,67,1.2,1.2,76,0.00,CLR,OVC,0.04,WeatherDisplay:10.37,2013-10-10 21:51:00,
2013-10-10 17:56:00,59.0,51.4,29.23,NE,45,3.0,3.0,76,0.00,CLR,OVC,0.04,WeatherDisplay:10.37,2013-10-10 21:56:00,
2013-10-10 18:01:00,59.0,51.1,29.23,NNW,337,0.0,0.6,75,0.00,CLR,OVC,0.04,WeatherDisplay:10.37,2013-10-10 22:01:00,
2013-10-10 18:06:00,59.0,50.4,29.23,NE,45,0.0,0.0,73,0.00,CLR,OVC,0.04,WeatherDisplay:10.37,2013-10-10 22:06:00,
2013-10-10 18:11:00,59.0,51.4,29.23,East,90,1.0,1.0,76,0.00,CLR,OVC,0.04,WeatherDisplay:10.37,2013-10-10 22:11:00,
2013-10-10 18:16:00,59.0,51.4,29.23,ENE,67,0.0,0.0,76,0.00,CLR,OVC,0.04,WeatherDisplay:10.37,2013-10-10 22:16:00,
2013-10-10 18:22:00,59.0,51.8,29.23,North,360,0.0,0.0,77,0.00,CLR,OVC,0.04,WeatherDisplay:10.37,2013-10-10 22:22:00,
2013-10-10 18:27:00,59.0,51.4,29.23,ENE,67,0.0,0.1,76,0.00,CLR,OVC,0.04,WeatherDisplay:10.37,2013-10-10 22:27:00,
2013-10-10 18:32:00,59.0,51.4,29.23,East,90,0.0,0.3,76,0.00,CLR,OVC,0.04,WeatherDisplay:10.37,2013-10-10 22:32:00,
2013-10-10 18:37:00,59.0,50.4,29.23,ESE,112,0.0,0.0,73,0.00,CLR,OVC,0.04,WeatherDisplay:10.37,2013-10-10 22:37:00,
2013-10-10 18:42:00,59.0,49.6,29.23,ENE,67,0.0,0.0,71,0.00,CLR,OVC,0.04,WeatherDisplay:10.37,2013-10-10 22:42:00,
2013-10-10 18:47:00,59.0,48.8,29.23,NNE,22,0.0,0.0,69,0.00,CLR,OVC,0.04,WeatherDisplay:10.37,2013-10-10 22:47:00,
2013-10-10 18:52:00,58.0,46.7,29.23,North,360,0.0,0.0,66,0.00,CLR,OVC,0.04,WeatherDisplay:10.37,2013-10-10 22:52:00,
2013-10-10 18:57:00,58.0,44.6,29.23,NE,45,1.2,1.2,61,0.00,CLR,OVC,0.04,WeatherDisplay:10.37,2013-10-10 22:57:00,
2013-10-10 19:02:00,58.0,43.3,29.23,NE,45,0.0,0.0,58,0.00,CLR,OVC,0.04,WeatherDisplay:10.37,2013-10-10 23:02:00,
2013-10-10 19:07:00,58.0,42.8,29.23,ESE,112,0.0,0.0,57,0.00,CLR,OVC,0.04,WeatherDisplay:10.37,2013-10-10 23:07:00,
2013-10-10 19:12:00,58.0,40.0,29.23,ESE,112,0.0,0.0,51,0.00,CLR,OVC,0.04,WeatherDisplay:10.37,2013-10-10 23:12:00,
2013-10-10 19:17:00,58.0,39.5,29.23,NE,45,0.0,0.0,50,0.00,CLR,OVC,0.04,WeatherDisplay:10.37,2013-10-10 23:17:00,
2013-10-10 19:22:00,58.0,38.9,29.23,WNW,292,0.0,0.1,49,0.00,CLR,OVC,0.04,WeatherDisplay:10.37,2013-10-10 23:22:00,
2013-10-10 19:27:00,58.0,38.4,29.23,NE,45,0.0,0.0,48,0.00,CLR,OVC,0.04,WeatherDisplay:10.37,2013-10-10 23:27:00,
2013-10-10 19:32:00,58.0,35.6,29.23,ENE,67,1.2,1.2,43,0.00,CLR,OVC,0.04,WeatherDisplay:10.37,2013-10-10 23:32:00,
2013-10-10 19:37:00,59.0,35.9,29.23,ESE,112,0.0,0.0,42,0.00,CLR,OVC,0.04,WeatherDisplay:10.37,2013-10-10 23:37:00,
2013-10-10 19:42:00,59.0,36.5,29.22,South,180,0.0,0.0,43,0.00,CLR,OVC,0.04,WeatherDisplay:10.37,2013-10-10 23:42:00,
2013-10-10 19:47:00,59.0,33.4,29.22,NE,45,1.2,1.2,38,0.00,CLR,OVC,0.04,WeatherDisplay:10.37,2013-10-10 23:47:00,
2013-10-10 19:52:00,58.0,31.8,29.23,ENE,67,0.0,0.1,37,0.00,CLR,OVC,0.04,WeatherDisplay:10.37,2013-10-10 23:52:00,
2013-10-10 19:57:00,58.0,30.5,29.23,East,90,0.0,0.0,35,0.00,CLR,OVC,0.04,WeatherDisplay:10.37,2013-10-10 23:57:00,
2013-10-10 20:02:00,58.0,29.0,29.23,East,90,0.0,0.0,33,0.00,CLR,OVC,0.04,WeatherDisplay:10.37,2013-10-11 00:02:00,
2013-10-10 20:07:00,58.0,28.3,29.23,East,90,0.0,0.0,32,0.00,CLR,OVC,0.04,WeatherDisplay:10.37,2013-10-11 00:07:00,
2013-10-10 20:12:00,58.0,26.7,29.22,East,90,0.0,0.0,30,0.00,CLR,OVC,0.04,WeatherDisplay:10.37,2013-10-11 00:12:00,
2013-10-10 20:17:00,58.0,25.9,29.22,ENE,67,1.2,0.0,29,0.00,CLR,OVC,0.04,WeatherDisplay:10.37,2013-10-11 00:17:00,
2013-10-10 20:22:00,58.0,25.9,29.22,NNE,22,2.3,2.3,29,0.00,CLR,OVC,0.04,WeatherDisplay:10.37,2013-10-11 00:22:00,
2013-10-10 20:27:00,58.0,25.9,29.22,ENE,67,0.0,0.0,29,0.00,CLR,OVC,0.04,WeatherDisplay:10.37,2013-10-11 00:27:00,
2013-10-10 20:32:00,58.0,22.3,29.22,ESE,112,0.0,0.1,25,0.00,CLR,OVC,0.04,WeatherDisplay:10.37,2013-10-11 00:32:00,
2013-10-10 20:37:00,58.0,23.3,29.22,NNE,22,0.0,0.0,26,0.00,CLR,OVC,0.04,WeatherDisplay:10.37,2013-10-11 00:37:00,
2013-10-10 20:42:00,58.0,24.2,29.22,NE,45,0.0,0.0,27,0.00,CLR,OVC,0.04,WeatherDisplay:10.37,2013-10-11 00:42:00,
2013-10-10 20:47:00,58.0,25.0,29.22,North,360,0.0,0.0,28,0.00,CLR,OVC,0.04,WeatherDisplay:10.37,2013-10-11 00:47:00,
2013-10-10 20:52:00,58.0,23.3,29.23,NNW,337,0.0,0.0,26,0.00,CLR,OVC,0.04,WeatherDisplay:10.37,2013-10-11 00:52:00,
2013-10-10 20:57:00,58.0,25.0,29.23,North,360,1.2,0.0,28,0.00,CLR,OVC,0.04,WeatherDisplay:10.37,2013-10-11 00:57:00,
2013-10-10 21:02:00,58.0,23.3,29.23,North,360,0.0,0.0,26,0.00,CLR,OVC,0.04,WeatherDisplay:10.37,2013-10-11 01:02:00,
2013-10-10 21:07:00,58.0,24.2,29.23,NW,315,2.0,2.0,27,0.00,CLR,OVC,0.04,WeatherDisplay:10.37,2013-10-11 01:07:00,
2013-10-10 21:12:00,58.0,21.4,29.22,SSE,157,0.0,0.0,24,0.00,CLR,OVC,0.04,WeatherDisplay:10.37,2013-10-11 01:12:00,
2013-10-10 21:17:00,58.0,21.4,29.22,NE,45,2.3,0.0,24,0.00,CLR,OVC,0.04,WeatherDisplay:10.37,2013-10-11 01:17:00,
2013-10-10 21:22:00,58.0,18.2,29.22,ESE,112,0.0,0.0,21,0.00,CLR,OVC,0.04,WeatherDisplay:10.37,2013-10-11 01:22:00,
2013-10-10 21:27:00,58.0,17.1,29.22,SE,135,0.0,0.0,20,0.00,CLR,OVC,0.04,WeatherDisplay:10.37,2013-10-11 01:27:00,
2013-10-10 21:32:00,58.0,14.7,29.23,SE,135,3.5,3.5,18,0.00,CLR,OVC,0.04,WeatherDisplay:10.37,2013-10-11 01:32:00,
2013-10-10 21:37:00,58.0,15.9,29.23,ENE,67,0.0,0.0,19,0.00,CLR,OVC,0.04,WeatherDisplay:10.37,2013-10-11 01:37:00,
2013-10-10 21:42:00,58.0,15.9,29.23,ENE,67,1.0,1.0,19,0.01,RA,OVC,0.05,WeatherDisplay:10.37,2013-10-11 01:42:00,
2013-10-10 21:47:00,58.0,13.4,29.23,ENE,67,1.2,0.0,17,0.01,RA,OVC,0.05,WeatherDisplay:10.37,2013-10-11 01:47:00,
2013-10-10 21:52:00,58.0,14.7,29.23,ENE,67,0.0,0.0,18,0.01,CLR,OVC,0.05,WeatherDisplay:10.37,2013-10-11 01:52:00,
2013-10-10 21:57:00,58.0,14.7,29.23,East,90,3.5,3.5,18,0.01,CLR,OVC,0.05,WeatherDisplay:10.37,2013-10-11 01:57:00,
2013-10-10 22:02:00,58.0,13.4,29.22,East,90,1.2,0.0,17,0.01,CLR,OVC,0.05,WeatherDisplay:10.37,2013-10-11 02:02:00,
2013-10-10 22:07:00,58.0,13.4,29.22,East,90,0.0,0.0,17,0.01,CLR,OVC,0.05,WeatherDisplay:10.37,2013-10-11 02:07:00,
2013-10-10 22:12:00,58.0,14.7,29.23,NNW,337,2.3,2.3,18,0.01,CLR,OVC,0.05,WeatherDisplay:10.37,2013-10-11 02:12:00,
2013-10-10 22:17:00,58.0,13.4,29.23,NNE,22,0.0,0.0,17,0.01,CLR,OVC,0.05,WeatherDisplay:10.37,2013-10-11 02:17:00,
2013-10-10 22:22:00,58.0,14.7,29.23,SE,135,0.0,0.0,18,0.01,CLR,OVC,0.05,WeatherDisplay:10.37,2013-10-11 02:22:00,
2013-10-10 22:27:00,58.0,12.0,29.23,NE,45,1.2,0.0,16,0.01,CLR,OVC,0.05,WeatherDisplay:10.37,2013-10-11 02:27:00,
2013-10-10 22:32:00,58.0,14.7,29.23,ENE,67,0.0,0.0,18,0.01,CLR,OVC,0.05,WeatherDisplay:10.37,2013-10-11 02:32:00,
2013-10-10 22:37:00,58.0,14.7,29.23,NE,45,0.0,0.0,18,0.01,CLR,OVC,0.05,WeatherDisplay:10.37,2013-10-11 02:37:00,
2013-10-10 22:42:00,58.0,15.9,29.23,SE,135,0.0,0.0,19,0.00,CLR,OVC,0.05,WeatherDisplay:10.37,2013-10-11 02:42:00,
2013-10-10 22:47:00,58.0,15.9,29.23,NE,45,0.0,0.0,19,0.00,CLR,OVC,0.05,WeatherDisplay:10.37,2013-10-11 02:47:00,
2013-10-10 22:52:00,58.0,15.9,29.23,East,90,0.0,0.0,19,0.00,CLR,OVC,0.05,WeatherDisplay:10.37,2013-10-11 02:52:00,
2013-10-10 22:57:00,58.0,15.9,29.23,East,90,0.0,0.0,19,0.00,CLR,OVC,0.05,WeatherDisplay:10.37,2013-10-11 02:57:00,
2013-10-10 23:02:00,58.0,17.1,29.23,East,90,0.0,0.0,20,0.00,CLR,OVC,0.05,WeatherDisplay:10.37,2013-10-11 03:02:00,
2013-10-10 23:07:00,57.0,13.8,29.23,ENE,67,0.0,0.0,18,0.00,CLR,OVC,0.05,WeatherDisplay:10.37,2013-10-11 03:07:00,
2013-10-10 23:12:00,57.0,13.8,29.23,ENE,67,0.0,0.0,18,0.00,CLR,OVC,0.05,WeatherDisplay:10.37,2013-10-11 03:12:00,
2013-10-10 23:17:00,57.0,12.5,29.23,SE,135,0.0,0.0,17,0.00,CLR,OVC,0.05,WeatherDisplay:10.37,2013-10-11 03:17:00,
2013-10-10 23:22:00,57.0,13.8,29.22,SE,135,0.0,0.0,18,0.00,CLR,OVC,0.05,WeatherDisplay:10.37,2013-10-11 03:22:00,
2013-10-10 23:27:00,57.0,11.2,29.22,NE,45,0.0,0.0,16,0.00,CLR,OVC,0.05,WeatherDisplay:10.37,2013-10-11 03:27:00,
2013-10-10 23:33:00,57.0,12.5,29.22,NNE,22,1.2,0.0,17,0.00,CLR,OVC,0.05,WeatherDisplay:10.37,2013-10-11 03:33:00,
2013-10-10 23:38:00,57.0,12.5,29.22,NW,315,0.0,0.2,17,0.00,CLR,OVC,0.05,WeatherDisplay:10.37,2013-10-11 03:38:00,
2013-10-10 23:43:00,57.0,13.8,29.21,NW,315,1.2,1.2,18,0.00,CLR,OVC,0.05,WeatherDisplay:10.37,2013-10-11 03:43:00,
2013-10-10 23:48:00,57.0,11.2,29.21,ENE,67,0.0,0.0,16,0.00,CLR,OVC,0.05,WeatherDisplay:10.37,2013-10-11 03:48:00,
2013-10-10 23:53:00,57.0,12.5,29.21,ENE,67,0.0,0.0,17,0.00,CLR,OVC,0.05,WeatherDisplay:10.37,2013-10-11 03:53:00,
2013-10-10 23:58:00,57.0,11.2,29.21,East,90,3.5,3.5,16,0.00,CLR,OVC,0.05,WeatherDisplay:10.37,2013-10-11 03:58:00,